Station Historical Data
Daily Summary for June 12, 2017 Units:  Metric    English   Both
« Previous Day
Next Day »
Daily Weekly Monthly Yearly Custom
  High: Low: Average:
Temperature: 29.9 °C 20.7 °C 25.1 °C
Dew Point: 19.3 °C 15.3 °C 17.3 °C
Humidity: 73% 45% 62%
Wind Speed: 24.1km/h 0km/h 8.9km/h
Wind Gust: 41.8km/h - -
Wind- - WSW
Pressure: 1016.1 hPa 1012.4 hPa -
Precipitation: 0 mm    
Historical Graphs
 
 
Tabular Data for June 12, 2017
Time Temperature Dew Point Pressure Wind Wind Speed Wind Gust Humidity Rainfall Rate (Hourly)
00:04 21.8 °C 15.4 °C 1013.8 hPa Calm     67% 0 mm
00:09 21.7 °C 15.3 °C 1013.8 hPa Calm   3.2 km/h 67% 0 mm
00:14 21.7 °C 15.3 °C 1014.1 hPa Calm   3.2 km/h 67% 0 mm
00:19 21.6 °C 15.4 °C 1014.1 hPa Calm   1.6 km/h 68% 0 mm
00:24 21.4 °C 15.4 °C 1014.1 hPa Calm     69% 0 mm
00:29 21.2 °C 15.3 °C 1014.1 hPa Calm     69% 0 mm
00:34 21 °C 15.6 °C 1014.1 hPa Calm     71% 0 mm
00:39 20.8 °C 15.4 °C 1014.1 hPa Calm     71% 0 mm
00:44 20.7 °C 15.5 °C 1014.1 hPa Calm     72% 0 mm
00:54 20.9 °C 15.9 °C 1014.1 hPa Calm   4.8 km/h 73% 0 mm
00:59 21.3 °C 16 °C 1014.1 hPa SSW 3.2 km/h 6.4 km/h 72% 0 mm
01:04 21.6 °C 16.1 °C 1014.1 hPa SW 1.6 km/h 6.4 km/h 71% 0 mm
01:09 22 °C 16.3 °C 1014.1 hPa SW 1.6 km/h 6.4 km/h 70% 0 mm
01:14 22.2 °C 16.3 °C 1014.1 hPa SW 3.2 km/h 8 km/h 69% 0 mm
01:19 22.6 °C 16.2 °C 1014.1 hPa SW 4.8 km/h 8 km/h 67% 0 mm
01:24 22.8 °C 16.2 °C 1014.1 hPa SW 1.6 km/h 9.7 km/h 66% 0 mm
01:29 22.8 °C 16.2 °C 1014.1 hPa WSW 4.8 km/h 9.7 km/h 66% 0 mm
01:34 23 °C 16.3 °C 1014.1 hPa SW 4.8 km/h 9.7 km/h 66% 0 mm
01:39 23 °C 16.1 °C 1013.8 hPa SW 4.8 km/h 9.7 km/h 65% 0 mm
01:44 23.1 °C 16.2 °C 1013.8 hPa SSW 4.8 km/h 11.3 km/h 65% 0 mm
01:49 23.3 °C 16.1 °C 1014.1 hPa SW 6.4 km/h 11.3 km/h 64% 0 mm
01:54 23.4 °C 16.2 °C 1014.4 hPa SW 1.6 km/h 11.3 km/h 64% 0 mm
01:59 23.5 °C 16.3 °C 1014.4 hPa Calm   9.7 km/h 64% 0 mm
02:04 23.4 °C 16.2 °C 1014.4 hPa WSW 3.2 km/h 14.5 km/h 64% 0 mm
02:09 23.6 °C 16.2 °C 1014.8 hPa SW 4.8 km/h 14.5 km/h 63% 0 mm
02:14 23.7 °C 16.2 °C 1014.8 hPa SW 4.8 km/h 12.9 km/h 63% 0 mm
02:19 23.7 °C 16.2 °C 1014.8 hPa SW 3.2 km/h 11.3 km/h 63% 0 mm
02:24 23.7 °C 16.2 °C 1014.8 hPa SW 1.6 km/h 12.9 km/h 63% 0 mm
02:29 23.5 °C 16.3 °C 1015.1 hPa South 8 km/h 12.9 km/h 64% 0 mm
02:34 23.7 °C 16.2 °C 1015.1 hPa SW 3.2 km/h 8 km/h 63% 0 mm
02:39 23.6 °C 16.3 °C 1015.1 hPa SW 4.8 km/h 9.7 km/h 64% 0 mm
02:44 23.4 °C 16.2 °C 1015.1 hPa SW 4.8 km/h 9.7 km/h 64% 0 mm
02:49 23.4 °C 16.4 °C 1015.1 hPa SW 4.8 km/h 11.3 km/h 65% 0 mm
02:54 23.5 °C 16.3 °C 1015.1 hPa SW 6.4 km/h 14.5 km/h 64% 0 mm
02:59 23.6 °C 16.3 °C 1015.1 hPa WSW 3.2 km/h 11.3 km/h 64% 0 mm
03:04 23.6 °C 16.6 °C 1015.1 hPa West 3.2 km/h 11.3 km/h 65% 0 mm
03:09 23.5 °C 16.6 °C 1015.1 hPa SW 6.4 km/h 11.3 km/h 65% 0 mm
03:14 23.6 °C 16.6 °C 1015.1 hPa SW 6.4 km/h 16.1 km/h 65% 0 mm
03:19 23.6 °C 16.7 °C 1015.1 hPa SW 6.4 km/h 16.1 km/h 65% 0 mm
03:24 23.6 °C 16.7 °C 1015.1 hPa SSW 8 km/h 12.9 km/h 65% 0 mm
03:29 23.7 °C 16.7 °C 1015.1 hPa WSW 14.5 km/h 17.7 km/h 65% 0 mm
03:34 23.7 °C 16.7 °C 1015.1 hPa South 4.8 km/h 16.1 km/h 65% 0 mm
03:39 23.7 °C 16.7 °C 1015.1 hPa SW 9.7 km/h 19.3 km/h 65% 0 mm
03:44 23.7 °C 16.7 °C 1015.1 hPa WSW 8 km/h 19.3 km/h 65% 0 mm
03:49 23.8 °C 16.8 °C 1015.1 hPa SW 8 km/h 20.9 km/h 65% 0 mm
03:54 23.8 °C 16.8 °C 1015.1 hPa SW 8 km/h 20.9 km/h 65% 0 mm
03:59 23.8 °C 16.8 °C 1015.1 hPa WSW 6.4 km/h 16.1 km/h 65% 0 mm
04:04 23.8 °C 17.1 °C 1015.1 hPa WSW 8 km/h 17.7 km/h 66% 0 mm
04:09 23.8 °C 16.8 °C 1015.1 hPa WSW 4.8 km/h 16.1 km/h 65% 0 mm
04:14 23.8 °C 16.8 °C 1015.1 hPa WSW 6.4 km/h 17.7 km/h 65% 0 mm
04:19 23.8 °C 16.8 °C 1014.8 hPa WSW 11.3 km/h 16.1 km/h 65% 0 mm
04:24 23.8 °C 16.8 °C 1014.8 hPa SW 9.7 km/h 17.7 km/h 65% 0 mm
04:29 23.8 °C 16.8 °C 1014.8 hPa SSW 6.4 km/h 16.1 km/h 65% 0 mm
04:34 23.8 °C 16.8 °C 1014.8 hPa SW 6.4 km/h 16.1 km/h 65% 0 mm
04:39 23.9 °C 16.9 °C 1014.8 hPa WSW 9.7 km/h 20.9 km/h 65% 0 mm
04:44 23.9 °C 16.9 °C 1014.8 hPa WSW 9.7 km/h 20.9 km/h 65% 0 mm
04:49 23.9 °C 16.9 °C 1014.8 hPa WSW 9.7 km/h 19.3 km/h 65% 0 mm
04:54 23.9 °C 16.9 °C 1014.8 hPa WSW 11.3 km/h 19.3 km/h 65% 0 mm
04:59 23.8 °C 16.8 °C 1014.4 hPa WSW 9.7 km/h 20.9 km/h 65% 0 mm
05:04 23.6 °C 16.8 °C 1014.4 hPa WSW 9.7 km/h 20.9 km/h 66% 0 mm
05:09 23.3 °C 16.8 °C 1014.4 hPa WSW 8 km/h 19.3 km/h 67% 0 mm
05:14 23.1 °C 16.9 °C 1014.4 hPa WSW 6.4 km/h 19.3 km/h 68% 0 mm
05:19 22.8 °C 16.8 °C 1014.8 hPa WNW 8 km/h 16.1 km/h 69% 0 mm
05:24 22.6 °C 16.6 °C 1014.8 hPa WSW 3.2 km/h 19.3 km/h 69% 0 mm
05:29 22.3 °C 16.6 °C 1014.8 hPa WSW 3.2 km/h 14.5 km/h 70% 0 mm
05:34 22.2 °C 16.7 °C 1014.8 hPa SW 12.9 km/h 14.5 km/h 71% 0 mm
05:39 22.2 °C 16.7 °C 1014.8 hPa WSW 6.4 km/h 16.1 km/h 71% 0 mm
05:44 22.1 °C 16.6 °C 1015.1 hPa WSW 6.4 km/h 16.1 km/h 71% 0 mm
05:49 22.1 °C 16.6 °C 1015.1 hPa WSW 6.4 km/h 12.9 km/h 71% 0 mm
05:54 22.2 °C 16.7 °C 1015.1 hPa WSW 3.2 km/h 12.9 km/h 71% 0 mm
05:59 22.3 °C 16.6 °C 1015.1 hPa SW 1.6 km/h 12.9 km/h 70% 0 mm
06:04 22.4 °C 16.7 °C 1015.1 hPa WSW 6.4 km/h 16.1 km/h 70% 0 mm
06:09 22.5 °C 16.8 °C 1015.5 hPa WSW 6.4 km/h 16.1 km/h 70% 0 mm
06:14 22.5 °C 16.8 °C 1015.5 hPa WSW 6.4 km/h 12.9 km/h 70% 0 mm
06:19 22.5 °C 16.8 °C 1015.5 hPa WSW 6.4 km/h 12.9 km/h 70% 0 mm
06:24 22.4 °C 16.7 °C 1015.8 hPa WSW 6.4 km/h 12.9 km/h 70% 0 mm
06:29 22.3 °C 16.8 °C 1015.8 hPa WSW 4.8 km/h 12.9 km/h 71% 0 mm
06:34 22.3 °C 16.8 °C 1015.8 hPa WSW 6.4 km/h 14.5 km/h 71% 0 mm
06:39 22.3 °C 16.8 °C 1015.8 hPa WSW 6.4 km/h 14.5 km/h 71% 0 mm
06:44 22.3 °C 16.8 °C 1015.8 hPa WSW 6.4 km/h 11.3 km/h 71% 0 mm
06:49 22.3 °C 16.8 °C 1015.8 hPa SW 6.4 km/h 11.3 km/h 71% 0 mm
06:54 22.4 °C 16.9 °C 1016.1 hPa WSW 1.6 km/h 14.5 km/h 71% 0 mm
06:59 22.6 °C 17.1 °C 1016.1 hPa WSW 3.2 km/h 11.3 km/h 71% 0 mm
07:04 22.7 °C 17.1 °C 1016.1 hPa WSW 6.4 km/h 14.5 km/h 71% 0 mm
07:09 22.8 °C 17.1 °C 1016.1 hPa WSW 6.4 km/h 19.3 km/h 70% 0 mm
07:14 22.9 °C 17.2 °C 1016.1 hPa WSW 6.4 km/h 19.3 km/h 70% 0 mm
07:19 23.1 °C 17.1 °C 1016.1 hPa WSW 6.4 km/h 14.5 km/h 69% 0 mm
07:24 23.1 °C 17.1 °C 1016.1 hPa WSW 6.4 km/h 17.7 km/h 69% 0 mm
07:29 23.2 °C 17.2 °C 1016.1 hPa WSW 6.4 km/h 17.7 km/h 69% 0 mm
07:34 23.3 °C 17.1 °C 1016.1 hPa West 8 km/h 24.1 km/h 68% 0 mm
07:39 23.4 °C 17.2 °C 1016.1 hPa West 9.7 km/h 19.3 km/h 68% 0 mm
07:44 23.5 °C 17.5 °C 1016.1 hPa West 16.1 km/h 20.9 km/h 69% 0 mm
07:49 23.6 °C 17.3 °C 1016.1 hPa WSW 12.9 km/h 20.9 km/h 68% 0 mm
07:54 23.4 °C 17.2 °C 1016.1 hPa West 9.7 km/h 22.5 km/h 68% 0 mm
07:59 23.3 °C 17.1 °C 1016.1 hPa West 9.7 km/h 25.7 km/h 68% 0 mm
08:04 23.2 °C 17 °C 1015.8 hPa SW 8 km/h 20.9 km/h 68% 0 mm
08:09 23.1 °C 17.1 °C 1015.8 hPa SW 11.3 km/h 24.1 km/h 69% 0 mm
08:14 23.1 °C 17.1 °C 1015.8 hPa WSW 9.7 km/h 24.1 km/h 69% 0 mm
08:19 23.3 °C 17.3 °C 1015.8 hPa WSW 9.7 km/h 19.3 km/h 69% 0 mm
08:24 23.2 °C 17.2 °C 1015.8 hPa WSW 11.3 km/h 22.5 km/h 69% 0 mm
08:29 23.4 °C 17.4 °C 1015.8 hPa WSW 9.7 km/h 22.5 km/h 69% 0 mm
08:34 23.6 °C 17.3 °C 1015.8 hPa WSW 9.7 km/h 22.5 km/h 68% 0 mm
08:39 23.7 °C 17.2 °C 1015.8 hPa SSW 11.3 km/h 19.3 km/h 67% 0 mm
08:44 23.7 °C 17.4 °C 1015.8 hPa WSW 12.9 km/h 24.1 km/h 68% 0 mm
08:49 23.6 °C 17.3 °C 1015.8 hPa WSW 11.3 km/h 25.7 km/h 68% 0 mm
08:54 23.8 °C 17.6 °C 1015.8 hPa SSW 6.4 km/h 19.3 km/h 68% 0 mm
08:59 23.8 °C 17.3 °C 1015.5 hPa WSW 11.3 km/h 20.9 km/h 67% 0 mm
09:04 23.9 °C 17.7 °C 1015.5 hPa SW 6.4 km/h 24.1 km/h 68% 0 mm
09:09 24.1 °C 17.6 °C 1015.5 hPa SW 11.3 km/h 27.4 km/h 67% 0 mm
09:14 24.1 °C 17.8 °C 1015.1 hPa SW 11.3 km/h 27.4 km/h 68% 0 mm
09:19 24.4 °C 17.7 °C 1014.8 hPa SW 11.3 km/h 25.7 km/h 66% 0 mm
09:24 24.6 °C 17.6 °C 1014.8 hPa WSW 16.1 km/h 22.5 km/h 65% 0 mm
09:29 25 °C 17.9 °C 1015.5 hPa SW 9.7 km/h 16.1 km/h 65% 0 mm
09:34 25.1 °C 17.8 °C 1015.8 hPa SW 12.9 km/h 24.1 km/h 64% 0 mm
09:39 25.4 °C 18.3 °C 1015.8 hPa WSW 9.7 km/h 24.1 km/h 65% 0 mm
09:44 25.4 °C 18.4 °C 1015.8 hPa WSW 9.7 km/h 25.7 km/h 65% 0 mm
09:49 25.8 °C 17.9 °C 1015.8 hPa WSW 9.7 km/h 25.7 km/h 62% 0 mm
09:54 26 °C 18.4 °C 1015.8 hPa West 9.7 km/h 19.3 km/h 63% 0 mm
09:59 25.7 °C 17.8 °C 1015.8 hPa WNW 17.7 km/h 22.5 km/h 62% 0 mm
10:04 25.3 °C 18.3 °C 1015.8 hPa WNW 8 km/h 22.5 km/h 65% 0 mm
10:09 25.2 °C 17.9 °C 1015.8 hPa WSW 11.3 km/h 22.5 km/h 64% 0 mm
10:14 25.3 °C 18 °C 1015.8 hPa WSW 11.3 km/h 22.5 km/h 64% 0 mm
10:19 25.6 °C 18.6 °C 1015.8 hPa WSW 12.9 km/h 27.4 km/h 65% 0 mm
10:24 25.8 °C 17.9 °C 1015.8 hPa SW 9.7 km/h 25.7 km/h 62% 0 mm
10:29 26.1 °C 17.9 °C 1015.8 hPa WSW 17.7 km/h 33.8 km/h 61% 0 mm
10:34 26.1 °C 18.3 °C 1015.5 hPa SW 9.7 km/h 22.5 km/h 62% 0 mm
10:39 26.2 °C 18.1 °C 1015.5 hPa WSW 14.5 km/h 29 km/h 61% 0 mm
10:44 25.9 °C 17.8 °C 1015.5 hPa WSW 16.1 km/h 32.2 km/h 61% 0 mm
10:49 25.9 °C 17.8 °C 1015.5 hPa WSW 16.1 km/h 32.2 km/h 61% 0 mm
10:54 26.2 °C 18.1 °C 1015.5 hPa WSW 14.5 km/h 32.2 km/h 61% 0 mm
10:59 26.3 °C 18.4 °C 1015.5 hPa WSW 14.5 km/h 32.2 km/h 62% 0 mm
11:04 26.4 °C 18.3 °C 1015.5 hPa WSW 22.5 km/h 27.4 km/h 61% 0 mm
11:09 25.8 °C 18 °C 1015.5 hPa WSW 20.9 km/h 32.2 km/h 62% 0 mm
11:14 25.7 °C 17.8 °C 1015.5 hPa WSW 16.1 km/h 33.8 km/h 62% 0 mm
11:19 25.8 °C 18 °C 1015.5 hPa West 11.3 km/h 30.6 km/h 62% 0 mm
11:24 25.6 °C 18.3 °C 1015.5 hPa SW 22.5 km/h 33.8 km/h 64% 0 mm
11:29 25.6 °C 17.7 °C 1015.5 hPa WSW 8 km/h 25.7 km/h 62% 0 mm
11:34 25.7 °C 18.1 °C 1015.5 hPa WSW 14.5 km/h 30.6 km/h 63% 0 mm
11:39 25.7 °C 18.1 °C 1015.5 hPa WSW 14.5 km/h 30.6 km/h 63% 0 mm
11:44 25.9 °C 18.1 °C 1015.5 hPa WSW 12.9 km/h 29 km/h 62% 0 mm
11:49 25.9 °C 18.3 °C 1015.5 hPa WSW 12.9 km/h 29 km/h 63% 0 mm
11:54 25.7 °C 18.4 °C 1015.5 hPa WSW 12.9 km/h 32.2 km/h 64% 0 mm
11:59 25.5 °C 18.2 °C 1015.5 hPa WSW 14.5 km/h 32.2 km/h 64% 0 mm
12:04 25.6 °C 18.2 °C 1015.1 hPa SSW 11.3 km/h 27.4 km/h 64% 0 mm
12:09 25.4 °C 18.1 °C 1015.1 hPa SW 9.7 km/h 30.6 km/h 64% 0 mm
12:14 25.9 °C 18.6 °C 1015.1 hPa WSW 16.1 km/h 20.9 km/h 64% 0 mm
12:19 25.8 °C 18.4 °C 1015.1 hPa WSW 16.1 km/h 29 km/h 64% 0 mm
12:24 25.5 °C 17.9 °C 1015.1 hPa West 8 km/h 29 km/h 63% 0 mm
12:29 25.7 °C 18.3 °C 1015.1 hPa WSW 17.7 km/h 27.4 km/h 64% 0 mm
12:34 25.8 °C 18.4 °C 1015.1 hPa West 24.1 km/h 32.2 km/h 64% 0 mm
12:39 25.7 °C 18.2 °C 1015.1 hPa WSW 16.1 km/h 32.2 km/h 63% 0 mm
12:44 25.6 °C 18.2 °C 1015.1 hPa WSW 16.1 km/h 33.8 km/h 64% 0 mm
12:49 25.7 °C 18.3 °C 1014.8 hPa WSW 16.1 km/h 33.8 km/h 64% 0 mm
12:54 25.8 °C 18.8 °C 1015.1 hPa West 9.7 km/h 24.1 km/h 65% 0 mm
12:59 26.2 °C 18.6 °C 1014.8 hPa SW 17.7 km/h 33.8 km/h 63% 0 mm
13:04 25.9 °C 18.3 °C 1014.8 hPa WNW 12.9 km/h 30.6 km/h 63% 0 mm
13:09 26.3 °C 18.4 °C 1014.8 hPa SSE 17.7 km/h 27.4 km/h 62% 0 mm
13:14 26.3 °C 18.7 °C 1014.8 hPa WSW 4.8 km/h 25.7 km/h 63% 0 mm
13:19 26.5 °C 18.6 °C 1014.8 hPa WSW 17.7 km/h 29 km/h 62% 0 mm
13:24 26.5 °C 18.6 °C 1014.8 hPa WSW 16.1 km/h 29 km/h 62% 0 mm
13:29 26.7 °C 18.8 °C 1014.8 hPa NE 12.9 km/h 27.4 km/h 62% 0 mm
13:34 26.6 °C 18.4 °C 1014.8 hPa SSW 8 km/h 27.4 km/h 61% 0 mm
13:39 26.9 °C 18.7 °C 1014.8 hPa WSW 11.3 km/h 27.4 km/h 61% 0 mm
13:44 27.1 °C 19.2 °C 1014.4 hPa WSW 11.3 km/h 27.4 km/h 62% 0 mm
13:49 26.9 °C 19 °C 1014.4 hPa WSW 12.9 km/h 27.4 km/h 62% 0 mm
13:54 26.8 °C 18.9 °C 1014.4 hPa WSW 14.5 km/h 37 km/h 62% 0 mm
13:59 26.8 °C 18.9 °C 1014.1 hPa WSW 14.5 km/h 29 km/h 62% 0 mm
14:04 26.9 °C 18.4 °C 1014.4 hPa West 22.5 km/h 25.7 km/h 60% 0 mm
14:09 27.1 °C 19.2 °C 1014.4 hPa WNW 12.9 km/h 30.6 km/h 62% 0 mm
14:14 27.3 °C 18.8 °C 1014.1 hPa WSW 14.5 km/h 30.6 km/h 60% 0 mm
14:19 27.7 °C 18.7 °C 1014.1 hPa WSW 12.9 km/h 30.6 km/h 58% 0 mm
14:24 27.6 °C 18.8 °C 1014.1 hPa WSW 12.9 km/h 25.7 km/h 59% 0 mm
14:29 27.6 °C 18.6 °C 1014.1 hPa WSW 11.3 km/h 27.4 km/h 58% 0 mm
14:34 27.7 °C 19.2 °C 1014.1 hPa SW 11.3 km/h 25.7 km/h 60% 0 mm
14:39 27.7 °C 18.7 °C 1014.1 hPa West 20.9 km/h 27.4 km/h 58% 0 mm
14:44 27.8 °C 19.3 °C 1014.1 hPa West 12.9 km/h 27.4 km/h 60% 0 mm
14:49 27.1 °C 18.1 °C 1014.1 hPa WSW 14.5 km/h 29 km/h 58% 0 mm
14:54 27.2 °C 18.2 °C 1014.1 hPa WSW 11.3 km/h 33.8 km/h 58% 0 mm
14:59 27.3 °C 18.8 °C 1014.1 hPa SW 11.3 km/h 24.1 km/h 60% 0 mm
15:04 27.4 °C 18.4 °C 1014.1 hPa West 24.1 km/h 25.7 km/h 58% 0 mm
15:09 27.8 °C 19.1 °C 1014.1 hPa West 8 km/h 24.1 km/h 59% 0 mm
15:14 27.7 °C 18.7 °C 1014.1 hPa West 12.9 km/h 30.6 km/h 58% 0 mm
15:19 28.1 °C 18.7 °C 1014.1 hPa WSW 14.5 km/h 30.6 km/h 57% 0 mm
15:24 28.4 °C 18.2 °C 1014.1 hPa WSW 12.9 km/h 30.6 km/h 54% 0 mm
15:29 28.6 °C 18.1 °C 1014.1 hPa WSW 12.9 km/h 30.6 km/h 53% 0 mm
15:34 28.6 °C 18.1 °C 1014.1 hPa West 14.5 km/h 30.6 km/h 53% 0 mm
15:39 29 °C 17.8 °C 1014.1 hPa SW 16.1 km/h 30.6 km/h 51% 0 mm
15:44 28.9 °C 17.5 °C 1014.1 hPa WNW 6.4 km/h 41.8 km/h 50% 0 mm
15:49 29.4 °C 17.6 °C 1014.1 hPa WSW 4.8 km/h 22.5 km/h 49% 0 mm
15:54 29.6 °C 17.8 °C 1014.1 hPa WNW 14.5 km/h 32.2 km/h 49% 0 mm
15:59 29.6 °C 18.1 °C 1014.1 hPa WSW 14.5 km/h 33.8 km/h 50% 0 mm
16:04 29.6 °C 17.4 °C 1014.1 hPa West 19.3 km/h 25.7 km/h 48% 0 mm
16:09 29.8 °C 17.9 °C 1014.1 hPa West 17.7 km/h 27.4 km/h 49% 0 mm
16:14 29.7 °C 17.5 °C 1013.8 hPa WSW 14.5 km/h 29 km/h 48% 0 mm
16:19 29.7 °C 16.5 °C 1014.1 hPa WSW 16.1 km/h 35.4 km/h 45% 0 mm
16:24 29.9 °C 17.7 °C 1013.8 hPa WSW 14.5 km/h 35.4 km/h 48% 0 mm
16:29 29.9 °C 16.7 °C 1013.8 hPa WSW 12.9 km/h 37 km/h 45% 0 mm
16:34 29.8 °C 17.3 °C 1013.8 hPa SW 24.1 km/h 25.7 km/h 47% 0 mm
16:39 29.7 °C 17.2 °C 1013.8 hPa WSW 11.3 km/h 24.1 km/h 47% 0 mm
16:44 29.6 °C 17.4 °C 1013.8 hPa WSW 12.9 km/h 29 km/h 48% 0 mm
16:49 29.3 °C 17.8 °C 1013.4 hPa SSW 19.3 km/h 22.5 km/h 50% 0 mm
16:54 29.1 °C 17.3 °C 1013.4 hPa WSW 22.5 km/h 27.4 km/h 49% 0 mm
16:59 29.1 °C 17.9 °C 1013.4 hPa West 17.7 km/h 24.1 km/h 51% 0 mm
17:04 29.1 °C 17.6 °C 1013.4 hPa SW 11.3 km/h 24.1 km/h 50% 0 mm
17:09 28.8 °C 17.4 °C 1013.4 hPa WSW 12.9 km/h 25.7 km/h 50% 0 mm
17:14 28.6 °C 17.5 °C 1013.8 hPa WSW 12.9 km/h 29 km/h 51% 0 mm
17:19 28.4 °C 17.9 °C 1013.4 hPa WSW 12.9 km/h 29 km/h 53% 0 mm
17:24 28.3 °C 17.6 °C 1013.8 hPa WSW 12.9 km/h 32.2 km/h 52% 0 mm
17:29 27.9 °C 17.4 °C 1013.4 hPa SSW 12.9 km/h 24.1 km/h 53% 0 mm
17:34 27.7 °C 17.2 °C 1013.4 hPa SW 19.3 km/h 25.7 km/h 53% 0 mm
17:39 27.7 °C 17.3 °C 1013.4 hPa WSW 14.5 km/h 25.7 km/h 53% 0 mm
17:44 27.9 °C 17.1 °C 1013.4 hPa WSW 12.9 km/h 25.7 km/h 52% 0 mm
17:49 28.1 °C 17.3 °C 1013.1 hPa WSW 11.3 km/h 24.1 km/h 52% 0 mm
17:54 28.3 °C 17.2 °C 1013.1 hPa SW 16.1 km/h 17.7 km/h 51% 0 mm
17:59 28.4 °C 16.9 °C 1013.1 hPa SSW 11.3 km/h 22.5 km/h 50% 0 mm
18:04 28.2 °C 16.8 °C 1013.1 hPa WSW 8 km/h 22.5 km/h 50% 0 mm
18:09 28.2 °C 16.8 °C 1013.1 hPa WSW 12.9 km/h 27.4 km/h 50% 0 mm
18:14 28.2 °C 16.8 °C 1013.1 hPa WSW 11.3 km/h 27.4 km/h 50% 0 mm
18:19 27.9 °C 16.2 °C 1013.1 hPa WSW 14.5 km/h 22.5 km/h 49% 0 mm
18:24 27.8 °C 16.8 °C 1013.1 hPa SW 4.8 km/h 20.9 km/h 51% 0 mm
18:29 27.7 °C 16.6 °C 1012.8 hPa SW 12.9 km/h 17.7 km/h 51% 0 mm
18:34 27.7 °C 16.9 °C 1012.8 hPa West 4.8 km/h 20.9 km/h 52% 0 mm
18:39 27.6 °C 16.6 °C 1012.8 hPa WSW 11.3 km/h 25.7 km/h 51% 0 mm
18:44 27.6 °C 16.8 °C 1013.1 hPa WSW 9.7 km/h 25.7 km/h 52% 0 mm
18:49 27.6 °C 16.8 °C 1012.8 hPa WSW 9.7 km/h 19.3 km/h 52% 0 mm
18:54 27.6 °C 16.8 °C 1012.8 hPa WSW 9.7 km/h 20.9 km/h 52% 0 mm
18:59 27.4 °C 17 °C 1012.8 hPa SW 9.7 km/h 27.4 km/h 53% 0 mm
19:04 27.4 °C 16.7 °C 1012.8 hPa WSW 9.7 km/h 20.9 km/h 52% 0 mm
19:09 27.3 °C 16.9 °C 1012.8 hPa WSW 11.3 km/h 20.9 km/h 53% 0 mm
19:14 27.2 °C 17.1 °C 1012.8 hPa SW 6.4 km/h 20.9 km/h 54% 0 mm
19:19 26.8 °C 17.1 °C 1012.8 hPa West 8 km/h 17.7 km/h 55% 0 mm
19:24 26.3 °C 16.8 °C 1013.1 hPa WSW 9.7 km/h 19.3 km/h 56% 0 mm
19:29 25.9 °C 17 °C 1013.1 hPa SW 11.3 km/h 17.7 km/h 58% 0 mm
19:34 25.4 °C 17.1 °C 1013.1 hPa SW 11.3 km/h 20.9 km/h 60% 0 mm
19:39 25.1 °C 17 °C 1013.1 hPa WSW 11.3 km/h 20.9 km/h 61% 0 mm
19:44 24.8 °C 17 °C 1013.1 hPa WSW 9.7 km/h 17.7 km/h 62% 0 mm
19:49 24.6 °C 17.1 °C 1013.1 hPa WSW 8 km/h 16.1 km/h 63% 0 mm
19:54 24.4 °C 16.9 °C 1013.1 hPa WSW 4.8 km/h 11.3 km/h 63% 0 mm
19:59 24.4 °C 17.2 °C 1013.1 hPa WSW 9.7 km/h 11.3 km/h 64% 0 mm
20:04 24.5 °C 17 °C 1012.8 hPa SSW 8 km/h 16.1 km/h 63% 0 mm
20:09 24.6 °C 17.1 °C 1012.8 hPa SW 8 km/h 16.1 km/h 63% 0 mm
20:14 24.7 °C 16.9 °C 1013.1 hPa WSW 6.4 km/h 14.5 km/h 62% 0 mm
20:19 24.8 °C 16.8 °C 1012.8 hPa WSW 6.4 km/h 14.5 km/h 61% 0 mm
20:24 24.8 °C 16.8 °C 1012.8 hPa WSW 6.4 km/h 16.1 km/h 61% 0 mm
20:29 24.9 °C 16.8 °C 1012.8 hPa WSW 3.2 km/h 14.5 km/h 61% 0 mm
20:34 24.9 °C 16.8 °C 1012.8 hPa WSW 6.4 km/h 9.7 km/h 61% 0 mm
20:39 24.9 °C 16.9 °C 1012.8 hPa SW 4.8 km/h 12.9 km/h 61% 0 mm
20:44 24.9 °C 16.9 °C 1012.8 hPa WSW 1.6 km/h 9.7 km/h 61% 0 mm
20:49 24.9 °C 16.9 °C 1012.8 hPa SW 3.2 km/h 16.1 km/h 61% 0 mm
20:54 24.9 °C 16.8 °C 1012.8 hPa SW 6.4 km/h 9.7 km/h 61% 0 mm
20:59 24.9 °C 16.9 °C 1012.8 hPa SW 8 km/h 11.3 km/h 61% 0 mm
21:04 25.1 °C 16.8 °C 1012.8 hPa SW 3.2 km/h 11.3 km/h 60% 0 mm
21:09 25.2 °C 17.1 °C 1012.8 hPa SW 4.8 km/h 11.3 km/h 61% 0 mm
21:14 25.2 °C 17.1 °C 1012.8 hPa SW 4.8 km/h 11.3 km/h 61% 0 mm
21:19 25.2 °C 17.2 °C 1012.4 hPa SW 4.8 km/h 11.3 km/h 61% 0 mm
21:24 25.1 °C 17.1 °C 1012.8 hPa SW 3.2 km/h 8 km/h 61% 0 mm
21:29 25.1 °C 17.1 °C 1012.8 hPa SW 3.2 km/h 9.7 km/h 61% 0 mm
21:34 25.2 °C 17.1 °C 1012.8 hPa SW 3.2 km/h 9.7 km/h 61% 0 mm
21:39 25.2 °C 17.1 °C 1012.8 hPa SW 3.2 km/h 9.7 km/h 61% 0 mm
21:44 25.2 °C 17.2 °C 1012.8 hPa SW 3.2 km/h 9.7 km/h 61% 0 mm
21:49 25.2 °C 17.2 °C 1012.8 hPa SW 3.2 km/h 8 km/h 61% 0 mm
21:54 25.3 °C 17.2 °C 1012.8 hPa West 6.4 km/h 9.7 km/h 61% 0 mm
21:59 25.3 °C 17.2 °C 1012.8 hPa SSW 1.6 km/h 8 km/h 61% 0 mm
22:04 25.3 °C 17.3 °C 1012.8 hPa SW 6.4 km/h 11.3 km/h 61% 0 mm
22:09 25.4 °C 17.3 °C 1012.8 hPa SSW 6.4 km/h 8 km/h 61% 0 mm
22:14 25.4 °C 17.4 °C 1012.8 hPa SSW 4.8 km/h 11.3 km/h 61% 0 mm
22:19 25.5 °C 17.4 °C 1012.8 hPa SW 4.8 km/h 11.3 km/h 61% 0 mm
22:24 25.6 °C 17.6 °C 1012.8 hPa SW 3.2 km/h 12.9 km/h 61% 0 mm
22:29 25.6 °C 17.6 °C 1012.8 hPa WSW 1.6 km/h 9.7 km/h 61% 0 mm
22:34 25.5 °C 17.4 °C 1012.8 hPa SW 3.2 km/h 6.4 km/h 61% 0 mm
22:39 25.4 °C 17.4 °C 1012.8 hPa Calm   8 km/h 61% 0 mm
22:44 25.3 °C 17.5 °C 1012.8 hPa SW 1.6 km/h 8 km/h 62% 0 mm
22:49 25.2 °C 17.4 °C 1012.8 hPa SW 1.6 km/h 8 km/h 62% 0 mm
22:54 25.1 °C 17.3 °C 1012.8 hPa SW 1.6 km/h 8 km/h 62% 0 mm
22:59 25 °C 17.4 °C 1013.1 hPa Calm   4.8 km/h 63% 0 mm
23:04 24.9 °C 17.3 °C 1013.1 hPa Calm   6.4 km/h 63% 0 mm
23:09 24.8 °C 17.3 °C 1012.8 hPa SSW 6.4 km/h 6.4 km/h 63% 0 mm
23:14 24.9 °C 17.3 °C 1012.8 hPa SSW 3.2 km/h 8 km/h 63% 0 mm
23:19 24.8 °C 17.6 °C 1012.8 hPa SSW 1.6 km/h 8 km/h 64% 0 mm
23:24 24.7 °C 17.4 °C 1012.8 hPa SW 1.6 km/h 4.8 km/h 64% 0 mm
23:29 24.6 °C 17.3 °C 1012.8 hPa Calm   6.4 km/h 64% 0 mm
23:34 24.5 °C 17.5 °C 1012.8 hPa SW 1.6 km/h 6.4 km/h 65% 0 mm
23:39 24.4 °C 17.4 °C 1012.8 hPa SW 1.6 km/h 6.4 km/h 65% 0 mm
23:44 24.2 °C 17.4 °C 1012.8 hPa Calm   3.2 km/h 66% 0 mm
23:49 24 °C 17.3 °C 1012.8 hPa Calm   3.2 km/h 66% 0 mm
23:54 23.8 °C 17.3 °C 1012.8 hPa Calm   3.2 km/h 67% 0 mm
23:59 23.8 °C 17.3 °C 1012.8 hPa SW 1.6 km/h 4.8 km/h 67% 0 mm
Buffalo, New York, USA
Compliments of Weather Underground - 2.5 mb